Theta_e
327 326 326 328 340 338 337 341 333 331 328 324 324 326 329 331 337 345 326 322 326 331 332 336 335 335 332 328 331 329 329 330 331 331 330 330 329 329 334 334 335 337 335 334 334 334 335 336 337
322 324 325 334 333 333 338 335 333 328 324 323 324 323 328 331 331 330 325 322 329 334 335 335 333 332 328 333 331 328 326 328 329 329 328 328 326 328 332 332 333 333 333 333 332 331 332 333 334
324 322 329 332 327 336 339 333 331 324 322 323 326 322 326 330 330 329 322 325 334 336 333 332 331 329 333 333 329 328 330 328 328 329 328 330 327 327 328 329 329 330 330 330 329 328 329 330 332
323 326 322 326 326 333 334 330 330 325 323 324 325 328 326 326 328 325 321 330 334 334 330 329 329 328 332 330 327 325 325 327 328 328 327 327 325 326 326 326 326 327 327 327 327 326 327 329 329
324 325 326 323 331 330 329 331 329 326 325 325 327 328 328 326 326 322 321 329 334 330 328 326 328 328 328 327 327 328 326 325 325 323 323 323 323 323 323 323 325 324 324 324 323 324 324 326 327
329 324 324 326 328 328 329 329 328 326 324 324 327 328 327 326 324 322 321 328 332 331 328 329 330 327 329 327 326 326 324 327 324 322 322 321 321 321 322 322 322 321 322 322 322 321 321 324 324
329 327 326 325 328 330 329 327 327 326 324 323 325 329 326 325 324 322 322 327 329 331 330 331 331 329 328 326 325 326 324 324 322 321 320 319 319 320 320 320 319 319 318 318 319 318 318 319 319
332 330 325 325 327 330 328 327 326 325 325 324 325 329 329 325 323 323 322 324 325 329 332 331 330 328 327 326 326 325 324 322 321 320 318 317 316 317 319 318 315 316 316 315 314 314 314 314 311
329 335 330 328 329 328 327 326 325 324 324 326 325 326 327 324 323 323 323 323 325 328 330 330 329 327 326 327 324 323 323 322 321 317 314 317 318 316 318 314 312 314 313 311 311 308 306 307 306
331 334 330 326 326 327 328 327 326 326 323 322 327 327 327 325 324 324 323 323 327 328 329 329 327 327 326 326 324 324 322 322 322 322 319 317 314 314 315 310 309 307 305 306 307 305 310 311 312
328 329 327 325 323 322 327 322 320 323 322 318 318 327 327 327 326 324 324 323 325 327 326 328 328 327 327 326 324 324 323 322 323 321 319 316 313 311 312 313 313 313 311 315 312 312 312 312 311
323 322 323 324 319 320 321 322 318 317 318 316 318 322 327 327 326 326 325 324 323 326 327 327 327 327 328 326 325 324 324 324 323 322 319 317 314 312 312 312 313 312 311 312 312 312 312 311 310
319 319 319 318 317 318 319 320 318 317 317 316 317 319 322 326 328 328 326 324 322 323 326 326 326 325 326 326 325 325 323 324 323 322 321 316 314 312 313 313 314 312 311 311 312 312 312 312 311
316 318 318 318 318 317 319 318 319 317 317 317 317 316 315 317 321 328 328 325 323 322 324 325 326 326 325 324 325 324 324 323 322 322 321 319 314 312 313 314 314 312 312 312 311 311 312 312 312
318 318 319 318 318 318 318 319 318 317 317 316 316 315 315 315 317 316 316 321 325 323 322 323 325 325 325 325 324 323 323 323 322 322 320 318 317 314 313 315 315 313 313 312 311 311 311 311 312
318 318 318 317 319 317 318 322 318 317 316 316 314 313 314 314 315 315 315 315 317 324 323 322 324 325 325 325 325 324 323 322 321 321 320 319 317 315 314 315 316 316 315 313 312 312 312 312 312
319 319 319 316 315 318 317 320 318 317 316 315 313 312 312 312 313 314 315 315 315 316 323 323 323 324 325 325 324 324 324 323 323 321 321 321 320 317 316 316 317 316 315 314 313 313 313 312 313
320 318 317 317 317 317 319 319 317 316 315 313 311 310 310 311 311 314 315 316 316 316 318 324 324 324 324 325 324 324 324 323 323 323 322 321 321 320 318 317 317 316 315 314 313 313 314 314 313
316 316 317 316 316 318 319 319 318 315 313 312 310 309 309 310 312 313 315 318 317 317 317 325 325 325 324 325 325 325 324 324 323 323 323 321 321 321 319 318 318 317 316 315 314 313 314 314 314
317 317 317 316 315 316 318 318 317 315 313 311 310 308 308 309 309 311 313 316 319 319 323 324 325 325 325 325 325 325 325 324 324 324 323 323 322 322 321 320 319 318 317 316 315 314 313 314 314
317 317 316 317 316 315 318 319 318 314 312 310 309 308 308 308 309 309 311 312 315 318 319 322 324 326 326 326 326 325 325 325 324 324 324 324 323 322 322 321 319 318 318 317 316 316 314 314 314
319 315 315 316 317 318 317 320 319 314 311 309 307 306 306 306 307 308 309 310 311 312 318 319 320 321 322 325 324 325 324 324 325 324 324 323 323 323 322 322 321 319 318 317 317 316 316 315 315
318 316 317 318 317 316 318 317 318 315 312 308 306 306 305 305 305 306 307 308 308 309 309 311 316 318 319 320 320 321 321 322 322 322 322 322 322 322 322 321 321 320 319 318 317 316 316 316 316
316 316 317 317 316 318 316 316 319 317 312 307 305 304 304 303 303 305 305 306 306 306 307 308 307 307 308 312 315 318 319 320 320 320 320 320 321 321 322 321 320 320 319 319 318 317 317 317 316
316 317 321 323 320 321 317 317 318 314 311 308 305 304 303 302 302 303 304 304 304 304 304 305 305 306 306 306 305 307 308 308 309 310 312 312 314 315 317 318 320 320 320 320 319 319 318 318 317
317 317 319 321 320 320 318 319 319 310 307 306 305 304 303 302 302 302 304 304 304 303 303 303 303 303 304 304 304 305 304 305 305 305 306 307 307 308 309 311 315 317 318 319 319 320 319 319 319
316 316 315 316 314 314 318 318 315 309 307 306 306 305 304 303 302 302 303 303 303 302 302 302 302 302 302 303 303 303 303 304 304 304 304 304 304 304 305 306 307 310 314 317 318 318 319 319 319
313 313 315 315 318 318 317 320 319 311 308 307 306 304 304 303 302 302 302 302 302 301 301 301 301 300 300 301 302 302 302 303 303 303 303 303 303 303 303 304 304 305 306 309 312 315 317 318 318
315 314 314 314 314 314 313 317 314 313 310 307 305 304 303 302 302 301 302 302 301 300 300 300 299 299 299 299 300 301 301 301 302 302 302 302 302 302 303 303 303 303 304 305 306 307 309 312 315
313 314 314 314 317 316 314 314 310 312 309 308 305 303 302 303 302 302 302 301 300 299 299 298 298 298 298 298 299 299 300 299 299 300 300 301 301 302 302 302 302 303 303 303 304 304 305 306 307
Wind_Speed
9 12 7 4 1 2 5 4 5 9 8 8 6 9 15 12 6 5 11 11 21 19 14 15 14 14 12 10 14 14 13 12 12 14 15 16 16 15 15 15 18 20 21 19 18 18 19 18 17
8 10 4 3 2 4 2 7 12 10 7 2 7 8 10 6 8 11 10 18 18 18 16 17 14 13 12 12 15 14 11 10 12 13 13 15 14 13 16 17 18 19 20 18 17 17 17 17 16
7 6 2 2 3 4 5 14 9 8 5 5 5 9 7 5 9 9 22 20 18 15 19 14 13 10 11 14 12 12 11 13 11 14 13 14 15 13 14 15 15 17 18 16 16 17 16 14 14
6 2 3 2 5 7 9 9 9 7 4 3 3 9 7 12 3 15 21 20 19 20 12 11 11 11 11 12 10 10 8 10 12 12 12 14 14 13 12 14 13 14 15 14 15 15 14 13 12
5 3 3 5 10 6 9 5 5 8 6 7 12 6 7 8 15 20 20 19 24 19 13 12 13 11 9 9 9 10 10 9 10 10 8 9 10 11 11 11 12 14 13 12 14 12 12 11 11
3 2 3 2 6 6 9 2 3 9 9 8 14 7 5 10 16 17 18 18 18 16 17 13 15 13 12 7 7 9 7 9 9 8 9 9 9 10 10 11 11 11 11 11 10 11 11 10 11
3 2 4 8 6 6 9 8 6 9 11 8 9 6 6 11 16 17 17 17 14 22 17 13 16 13 11 8 9 7 6 7 6 6 6 7 8 8 9 9 9 9 8 8 9 9 9 10 10
3 3 1 5 4 8 4 4 7 9 7 2 12 5 6 13 17 15 16 15 15 15 14 14 11 9 9 8 10 7 5 4 4 5 4 6 9 9 8 6 7 7 7 7 7 6 7 7 8
3 3 5 6 9 5 4 8 5 3 11 14 7 9 13 18 16 15 15 14 14 11 11 21 16 10 10 10 6 6 5 4 4 4 7 6 4 7 3 2 5 5 5 5 5 5 6 8 9
2 4 7 6 8 5 7 9 4 3 13 8 9 13 16 15 14 14 13 14 15 14 12 18 14 14 10 9 7 7 5 4 2 3 6 6 3 2 2 7 8 8 5 6 7 7 8 7 3
6 6 6 10 9 9 5 14 13 10 8 7 7 9 11 13 13 14 14 16 15 14 13 13 14 15 13 13 10 8 6 3 5 4 1 1 0 4 5 5 6 6 8 4 7 7 6 5 1
3 6 6 5 4 7 7 8 11 11 4 8 6 6 11 8 10 12 15 16 17 16 14 11 12 15 15 12 8 11 7 7 5 4 3 2 0 1 0 1 2 2 2 1 2 2 2 2 2
7 5 1 6 1 1 0 8 10 9 6 7 8 8 5 6 10 11 11 15 18 18 16 14 13 11 12 12 7 14 5 8 5 5 3 4 4 3 2 2 1 1 3 1 1 3 3 3 3
4 1 5 2 5 1 7 8 5 8 7 9 10 10 9 10 16 4 4 10 13 17 19 17 14 12 11 11 9 7 6 6 6 5 4 3 4 3 3 3 3 2 3 2 3 4 3 3 4
3 5 7 6 6 5 13 10 7 6 8 9 10 9 9 11 17 19 20 11 12 13 18 18 17 16 12 10 9 10 5 4 6 5 5 5 5 4 4 4 3 2 3 6 3 4 5 5 4
4 5 6 4 7 1 1 6 6 6 8 9 10 9 8 10 15 17 16 15 15 6 17 17 18 17 15 11 9 7 8 8 6 6 6 6 7 6 6 5 4 5 6 5 4 4 5 6 6
7 5 6 5 2 4 7 8 7 8 8 9 9 9 8 9 14 16 14 13 14 14 11 19 18 15 15 13 11 9 8 8 7 7 7 6 6 6 6 6 6 6 5 5 6 5 6 6 7
4 6 4 7 3 2 11 9 7 7 9 9 9 9 9 9 10 18 17 13 9 14 11 18 18 15 15 14 11 10 9 8 8 8 7 7 7 7 8 7 7 7 6 7 7 8 6 7 9
8 7 6 8 3 2 8 8 7 7 7 8 8 9 9 9 16 21 21 20 17 3 9 11 17 14 14 13 12 10 9 9 9 9 9 8 8 8 8 8 8 8 8 8 8 8 8 8 9
5 5 2 6 4 2 8 7 7 8 6 8 9 9 9 9 10 19 23 25 25 21 6 2 9 12 13 12 10 9 8 10 10 9 9 10 10 11 10 10 9 9 9 8 9 9 10 10 8
5 5 5 4 5 6 8 7 8 7 8 8 9 9 9 10 11 12 20 25 28 27 21 14 8 6 5 5 4 4 2 1 4 7 8 10 11 12 12 12 12 11 11 12 10 10 10 10 10
4 6 3 2 3 2 8 0 8 9 8 8 8 8 8 9 10 15 19 23 26 27 25 22 19 15 13 4 1 4 4 8 9 5 6 5 7 11 12 13 13 13 13 14 13 12 13 11 13
3 3 2 3 5 6 7 2 5 10 8 8 7 8 9 9 9 11 19 23 23 26 25 24 21 20 17 14 10 9 10 10 10 7 4 6 6 6 9 11 13 14 15 15 15 13 14 14 14
1 4 5 3 3 3 10 8 7 5 12 7 8 8 8 9 9 16 21 22 24 25 25 24 24 25 23 20 17 14 13 12 12 12 10 10 7 5 6 9 11 13 13 15 16 16 16 16 17
3 4 2 2 2 3 6 3 5 8 10 11 9 8 8 8 8 8 14 19 23 26 26 24 26 25 22 23 23 20 19 18 17 16 15 16 14 14 12 9 8 9 12 15 16 15 16 17 19
6 2 2 3 2 1 2 3 5 9 10 10 9 8 8 8 7 8 15 18 20 22 25 25 26 26 25 23 23 21 21 19 18 17 16 16 15 15 14 15 12 12 12 13 13 15 17 18 19
2 2 3 4 6 2 5 5 5 9 8 8 8 8 7 7 7 8 15 17 19 21 22 23 24 24 25 23 22 22 22 20 19 18 18 17 16 16 15 16 15 15 12 12 13 14 15 16 17
3 2 1 2 3 4 4 6 3 9 9 8 8 8 7 7 7 7 13 16 17 19 20 21 22 22 23 22 21 20 21 20 19 18 18 18 17 17 17 17 17 16 15 14 14 12 13 14 16
1 2 4 1 2 2 3 2 6 8 10 9 8 8 7 7 6 6 12 14 16 17 18 19 20 21 22 21 20 19 19 19 19 19 19 19 18 18 17 17 17 16 16 16 15 14 16 16 15
1 4 2 1 5 3 2 2 6 4 10 8 10 8 6 6 5 7 12 14 15 17 18 19 19 19 19 19 18 17 17 18 18 19 20 19 19 17 18 16 16 16 16 18 13 13 16 18 19
Wind_Direction
328 318 300 303 330 220 258 61 88 61 81 58 36 53 92 43 17 93 133 125 130 136 139 127 117 111 104 87 105 89 79 84 72 65 66 65 64 66 66 69 63 67 71 68 66 65 67 69 68
331 307 273 270 244 217 105 128 72 68 62 176 52 48 71 79 67 118 123 133 137 127 137 127 116 107 102 98 101 90 92 84 70 68 68 62 66 73 66 72 68 68 70 69 66 67 67 68 69
321 296 285 220 231 350 92 88 95 93 43 357 119 52 43 50 120 122 136 142 126 123 126 132 123 117 102 112 97 91 83 86 81 74 74 69 71 75 66 66 67 68 68 66 68 66 68 69 73
312 237 270 280 251 43 71 78 104 116 106 6 44 85 85 11 47 126 140 141 137 133 137 141 138 125 117 108 98 100 101 84 84 79 71 68 73 71 72 68 69 68 71 70 69 70 71 74 79
247 266 259 233 51 57 65 53 163 96 73 28 88 67 83 52 99 126 143 138 130 128 140 125 138 141 133 114 99 98 90 93 88 78 76 71 74 73 76 75 70 72 70 70 67 71 71 71 77
274 248 263 129 102 69 81 101 16 78 91 14 98 101 74 117 121 136 147 140 141 132 134 137 143 139 137 128 117 110 100 100 86 83 78 77 74 72 72 70 70 71 74 71 75 70 69 71 74
266 244 337 89 114 77 59 314 9 61 58 25 359 73 123 120 136 141 148 146 142 136 134 135 144 139 132 132 129 122 120 100 74 86 82 82 80 78 77 73 69 71 71 74 73 72 67 63 70
288 274 114 85 159 72 40 50 18 40 52 144 15 79 137 132 141 145 142 146 142 140 131 149 149 144 146 155 136 136 125 97 96 95 90 102 80 90 86 70 68 66 65 68 72 74 71 74 82
281 278 88 13 71 85 168 108 59 265 93 60 61 70 111 135 143 142 143 146 146 138 178 155 147 160 158 155 160 155 132 125 134 87 85 92 90 54 99 35 41 61 68 68 71 71 83 83 73
251 59 60 36 36 83 49 50 90 189 71 51 84 92 117 137 147 150 155 159 159 165 180 157 153 165 160 166 168 163 174 214 147 215 38 44 139 182 350 17 41 50 66 69 59 66 77 57 44
346 100 125 58 15 347 97 69 43 28 49 27 3 125 138 160 165 166 175 171 177 175 173 168 159 178 178 170 174 185 196 191 172 172 175 211 29 11 41 1 28 15 27 7 18 17 36 29 107
124 47 18 107 42 356 33 70 70 51 13 31 17 18 143 176 178 186 177 173 173 179 180 184 169 168 174 177 185 180 188 189 176 190 206 219 323 216 165 49 333 22 343 31 357 327 329 341 4
88 100 75 96 120 66 38 41 88 39 10 48 38 33 18 177 189 185 174 168 173 177 182 188 183 184 183 183 171 183 174 184 202 207 238 217 235 228 249 276 330 294 305 4 312 316 307 314 299
59 54 100 122 121 126 88 46 56 1 13 46 58 42 35 13 3 57 134 152 170 179 180 187 190 194 198 191 184 202 190 194 209 215 237 256 241 266 246 255 280 280 289 287 301 300 281 299 299
172 153 134 140 151 121 119 58 46 344 47 50 58 51 57 29 20 22 7 346 182 187 178 185 188 192 199 201 200 204 191 210 214 232 236 244 244 254 257 264 270 284 285 299 323 332 299 302 299
216 256 168 128 160 199 310 100 52 10 61 52 56 49 48 45 27 20 356 343 326 218 178 179 185 190 194 199 204 195 210 220 224 232 236 239 241 249 246 258 270 275 270 288 275 293 296 292 290
220 245 162 143 334 144 194 124 69 19 54 56 51 42 37 44 28 21 4 338 316 296 199 176 181 188 189 196 200 204 210 212 221 230 230 237 239 242 252 256 270 276 281 287 295 284 289 294 304
265 218 87 115 81 96 73 99 77 50 51 54 49 40 31 38 28 21 9 355 318 286 269 175 176 185 193 186 199 202 210 218 227 228 232 235 237 239 242 251 260 265 272 277 272 279 276 284 286
338 7 36 95 29 39 107 103 92 72 52 58 52 41 31 33 32 26 18 13 1 241 255 172 169 179 189 183 196 204 209 219 224 234 234 234 238 239 242 247 256 262 259 264 275 271 274 280 285
332 305 109 80 149 233 140 122 102 95 78 64 61 50 43 30 32 33 25 20 23 26 85 74 166 172 188 189 201 210 221 224 226 224 233 235 234 234 241 243 245 250 258 260 261 259 269 277 271
226 329 17 64 168 261 156 154 143 118 106 83 61 63 45 48 40 35 34 27 25 28 29 42 63 140 172 170 181 205 262 298 222 217 229 233 238 240 243 243 247 248 248 253 260 259 253 260 279
332 5 351 90 194 259 169 204 164 142 109 78 69 56 57 42 48 45 41 43 35 34 40 44 46 53 54 134 31 194 240 252 269 245 236 244 250 250 250 254 258 256 254 256 254 254 254 249 259
101 330 344 311 284 309 195 254 117 141 126 100 79 73 61 56 51 50 46 44 47 48 50 49 52 52 49 44 34 27 26 20 24 30 349 314 293 275 263 262 262 261 259 259 261 253 251 249 251
57 257 219 256 236 253 223 176 173 189 141 121 99 79 74 63 52 52 54 49 45 49 54 56 60 56 55 59 58 54 44 34 28 20 8 358 358 328 302 289 274 269 269 268 263 261 258 258 253
226 273 238 251 199 248 12 136 117 104 111 116 109 93 79 69 59 53 52 53 46 45 49 49 50 51 52 53 53 55 55 53 46 39 34 31 21 9 351 344 333 301 286 276 268 269 266 262 259
221 347 300 296 33 138 270 189 143 96 89 94 98 100 83 71 70 56 55 53 55 50 46 46 46 44 43 44 43 45 47 48 46 42 38 34 28 20 9 5 345 320 303 296 292 275 271 271 267
84 199 346 309 279 249 143 88 84 122 126 131 117 97 85 84 69 67 60 56 53 50 48 44 42 39 36 37 38 36 36 38 40 37 34 30 25 19 16 14 12 8 353 326 306 296 290 280 278
246 342 306 234 270 261 199 122 116 167 158 142 131 114 102 87 77 74 68 61 53 48 46 43 41 36 30 29 32 32 29 28 28 28 26 24 20 17 15 14 14 12 9 5 355 333 309 296 288
219 222 235 239 264 258 322 85 352 177 161 155 128 112 104 90 82 73 70 65 59 49 40 37 33 28 23 19 20 22 23 20 21 20 17 13 11 11 13 12 11 10 7 8 4 6 2 352 333
311 339 327 229 330 324 158 214 331 110 137 139 120 112 101 98 101 87 78 64 50 43 36 30 25 22 16 11 9 11 12 11 10 7 6 4 2 2 4 2 5 5 4 3 357 356 357 355 351